Weather History for Nashville, TN

Change the Weather History Date:

Monday, March 18, 2013

  Actual Average Record
Temperature  
Mean Temperature 54 °F 51 °F  
Max Temperature 65 °F 62 °F 86 °F (1908)
Min Temperature 43 °F 40 °F 17 °F (1902)
Degree Days  
Heating Degree Days 11 15  
Month to date heating degree days 339 308  
Since 1 July heating degree days 2971 3246  
Cooling Degree Days 0 0  
Month to date cooling degree days 1 0  
Year to date cooling degree days 5 0  
Growing Degree Days 5 (Base 50)    
Moisture  
Dew Point 52 °F    
Average Humidity 79    
Maximum Humidity 93    
Minimum Humidity 64    
Precipitation  
Precipitation 1.39 in 0.13 in 2.45 in (1943)
Month to date precipitation 3.20 2.35  
Year to date precipitation 12.92 10.04  
Snow  
Snow 0.00 in 0.00 in 0.20 in (1893)
Month to date snowfall 0.3 0.6  
Since 1 July snowfall 1.3 6.0  
Snow Depth 0.00 in    
Sea Level Pressure  
Sea Level Pressure 29.78 in    
Wind  
Wind Speed 11 mph (SW)    
Max Wind Speed 25 mph    
Max Gust Speed 33 mph    
Visibility 8 miles    
Events Rain , Thunderstorm    
T = Trace of Precipitation, MM = Missing Value Source: NWS Daily Summary

Daily Weather History Graph

Daily Weather History Graph

Search for Another Location

Airport:

Trip Planner

Search our weather history database for the weather conditions in past years. The results will help you decide how hot, cold, wet, or windy it might be!

Date:

Astronomy

Mar. 18, 2013 Rise Set
Actual Time 6:52 AM CDT 6:57 PM CDT
Civil Twilight 6:27 AM CDT 7:22 PM CDT
Nautical Twilight 5:57 AM CDT 7:52 PM CDT
Astronomical Twilight 5:27 AM CDT 8:22 PM CDT
Moon 11:02 AM CDT (3/18) 12:46 AM CDT (3/18)
Length of Visible Light 12h 55m
Length of Day
12h 04m
Waxing Crescent, 41% of the Moon is Illuminated
Mar 18
Waxing Crescent
Mar 19
First Quarter
Mar 27
Full
Apr 2
Last Quarter
Apr 10
New

Hourly Weather History & Observations

Time (CDT) Temp. Windchill Dew Point Humidity Pressure Visibility Wind Dir Wind Speed Gust Speed Precip Events Conditions
12:53 AM 55.9 °F - 46.9 °F 72% 29.77 in 10.0 mi SSE 10.4 mph - N/A   Overcast
1:53 AM 61.0 °F - 51.1 °F 70% 29.75 in 10.0 mi South 17.3 mph - 0.00 in   Overcast
2:53 AM 63.0 °F - 53.1 °F 70% 29.74 in 10.0 mi South 17.3 mph 26.5 mph N/A   Overcast
3:53 AM 64.0 °F - 54.0 °F 70% 29.72 in 10.0 mi SSW 17.3 mph 28.8 mph N/A   Overcast
4:39 AM 64.4 °F - 55.4 °F 73% 29.73 in 10.0 mi South 21.9 mph 28.8 mph N/A   Overcast
4:53 AM 64.0 °F - 55.0 °F 73% 29.72 in 10.0 mi South 20.7 mph 27.6 mph N/A   Overcast
5:53 AM 64.4 °F - 55.4 °F 73% 29.71 in 10.0 mi South 20.7 mph 27.6 mph N/A   Mostly Cloudy
6:53 AM 64.0 °F - 55.9 °F 75% 29.72 in 10.0 mi SSW 15.0 mph 25.3 mph N/A   Overcast
7:53 AM 64.9 °F - 57.0 °F 75% 29.72 in 10.0 mi SSW 13.8 mph 27.6 mph N/A   Overcast
8:53 AM 64.0 °F - 57.0 °F 78% 29.73 in 10.0 mi South 20.7 mph 25.3 mph 0.00 in Rain , Thunderstorm Light Thunderstorms and Rain
9:03 AM 60.8 °F - 55.4 °F 82% 29.79 in 1.5 mi West 18.4 mph 33.4 mph 0.02 in Rain , Thunderstorm Heavy Thunderstorms and Rain
9:08 AM 57.2 °F - 53.6 °F 88% 29.80 in 1.0 mi West 11.5 mph 33.4 mph 0.19 in Rain , Thunderstorm Heavy Thunderstorms and Rain
9:23 AM 57.2 °F - 51.8 °F 82% 29.79 in 2.0 mi SSW 9.2 mph - 0.35 in Rain Heavy Rain
9:39 AM 55.4 °F - 53.6 °F 94% 29.79 in 2.0 mi SSW 9.2 mph - 0.53 in Rain Rain
9:53 AM 55.9 °F - 53.1 °F 90% 29.77 in 2.5 mi SW 4.6 mph - 0.60 in Rain Rain
9:59 AM 55.4 °F - 53.6 °F 94% 29.76 in 4.0 mi SW 4.6 mph - 0.07 in Rain Heavy Rain
10:17 AM 55.4 °F - 53.6 °F 94% 29.76 in 2.0 mi SSW 6.9 mph - 0.22 in Rain Heavy Rain
10:25 AM 55.4 °F - 53.6 °F 94% 29.78 in 1.0 mi SSW 6.9 mph - 0.28 in Rain , Thunderstorm Heavy Thunderstorms and Rain
10:29 AM 55.4 °F - 53.6 °F 94% 29.77 in 0.8 mi South 9.2 mph - 0.45 in Rain , Thunderstorm Heavy Thunderstorms and Rain
10:35 AM 55.4 °F - 53.6 °F 94% 29.78 in 1.0 mi SW 4.6 mph - 0.56 in Rain , Thunderstorm Thunderstorms and Rain
10:37 AM 55.4 °F - 53.6 °F 94% 29.78 in 4.0 mi SW 4.6 mph - 0.56 in Rain , Thunderstorm Thunderstorms and Rain
10:53 AM 55.9 °F - 54.0 °F 93% 29.78 in 9.0 mi West 4.6 mph - 0.56 in Rain Light Rain
11:07 AM 55.4 °F - 53.6 °F 94% 29.77 in 2.0 mi Calm Calm - 0.04 in Rain Heavy Rain
11:19 AM 55.4 °F - 53.6 °F 94% 29.77 in 2.0 mi WSW 4.6 mph - 0.13 in Rain , Thunderstorm Thunderstorms and Rain
11:37 AM 55.4 °F - 53.6 °F 94% 29.77 in 3.0 mi South 6.9 mph - 0.19 in Rain , Thunderstorm Light Thunderstorms and Rain
11:51 AM 55.4 °F - 53.6 °F 94% 29.76 in 4.0 mi SSE 4.6 mph - 0.22 in Rain , Thunderstorm Light Thunderstorms and Rain
11:53 AM 55.9 °F - 54.0 °F 93% 29.75 in 5.0 mi SSE 5.8 mph - 0.22 in Rain , Thunderstorm Thunderstorms and Rain
12:13 PM 55.4 °F - 53.6 °F 94% 29.74 in 10.0 mi SSE 4.6 mph - 0.01 in   Mostly Cloudy
12:53 PM 57.0 °F - 55.0 °F 93% 29.76 in 10.0 mi SSW 9.2 mph - 0.01 in   Mostly Cloudy
1:12 PM 57.2 °F - 55.4 °F 94% 29.76 in 10.0 mi SSW 4.6 mph - N/A   Mostly Cloudy
1:53 PM 60.1 °F - 57.0 °F 90% 29.74 in 10.0 mi Variable 3.5 mph - N/A   Overcast
2:30 PM 62.6 °F - 57.2 °F 82% 29.72 in 10.0 mi West 5.8 mph - N/A   Mostly Cloudy
2:53 PM 62.1 °F - 54.0 °F 75% 29.71 in 10.0 mi WSW 10.4 mph 17.3 mph N/A   Overcast
3:45 PM 62.6 °F - 53.6 °F 72% 29.73 in 10.0 mi SW 4.6 mph - N/A   Overcast
3:53 PM 62.1 °F - 53.1 °F 72% 29.73 in 10.0 mi SW 5.8 mph - N/A   Overcast
4:53 PM 62.1 °F - 50.0 °F 65% 29.75 in 10.0 mi West 11.5 mph - N/A   Overcast
5:53 PM 61.0 °F - 48.9 °F 64% 29.77 in 10.0 mi Variable 4.6 mph - N/A   Overcast
6:53 PM 57.0 °F - 46.9 °F 69% 29.80 in 10.0 mi NW 11.5 mph 20.7 mph N/A   Mostly Cloudy
7:23 PM 53.6 °F - 46.4 °F 77% 29.83 in 10.0 mi NW 13.8 mph 20.7 mph N/A   Mostly Cloudy
7:53 PM 51.1 °F - 43.0 °F 74% 29.86 in 10.0 mi NNW 18.4 mph 23.0 mph N/A   Overcast
8:40 PM 50.0 °F - 42.8 °F 76% 29.89 in 10.0 mi NW 13.8 mph 20.7 mph N/A   Scattered Clouds
8:53 PM 48.9 °F - 42.1 °F 77% 29.90 in 10.0 mi NW 8.1 mph - N/A   Scattered Clouds
9:53 PM 48.0 °F - 41.0 °F 77% 29.93 in 10.0 mi NNW 9.2 mph - N/A   Scattered Clouds
10:53 PM 46.9 °F - 39.0 °F 74% 29.96 in 10.0 mi NNW 10.4 mph - N/A   Scattered Clouds
11:53 PM 45.0 °F 42.6 °F 37.9 °F 76% 30.01 in 10.0 mi NNW 4.6 mph - N/A   Clear